RH
68 67 65 64 61 56 54 54 52 52 60 76 84 88 94 99 97 70 70 72 65 63 56 48 42 43 39 26 32 71 96 100 91 77 57 45 31 25 51 53 47 48 44 40 37
62 61 60 55 52 52 52 48 49 52 64 77 88 97 94 98 95 88 75 66 74 67 58 54 53 40 40 29 28 83 100 96 54 51 52 49 39 33 38 53 50 51 50 34 34
57 55 53 53 51 49 49 50 53 58 65 83 99 100 100 99 76 68 92 96 89 91 71 59 50 47 42 39 33 30 42 29 57 80 81 65 46 44 34 44 51 51 50 43 35
51 52 52 50 48 46 49 48 48 49 50 76 94 98 99 99 84 74 100 99 93 100 98 90 85 56 50 43 37 53 36 32 90 100 92 94 73 38 44 28 41 51 50 48 42
54 53 49 48 47 47 44 42 40 38 34 51 91 88 99 99 74 98 96 94 100 100 100 100 99 92 84 65 57 70 31 77 97 98 97 90 72 76 40 38 30 49 52 53 44
54 50 48 46 48 44 40 36 32 27 21 19 41 55 99 89 86 94 100 100 100 100 100 99 100 98 98 85 99 83 89 68 84 96 94 92 86 96 24 31 32 46 54 52 53
55 53 48 47 45 40 36 30 25 19 13 13 18 33 92 97 86 100 90 100 100 96 99 99 97 97 98 100 100 78 84 90 70 64 94 89 98 63 26 39 42 41 53 57 58
53 50 48 45 41 36 31 25 20 12 10 10 16 42 79 72 98 100 88 92 95 99 96 98 95 94 100 100 99 98 98 88 50 56 71 97 94 57 82 73 36 44 55 60 60
52 50 46 45 40 33 27 20 12 9 10 13 27 75 97 99 96 90 81 91 98 98 97 97 95 93 93 94 92 96 97 84 87 80 78 75 64 48 68 90 79 44 42 61 62
52 51 49 47 40 30 21 13 9 10 18 28 63 78 83 85 87 100 95 99 100 96 98 97 97 96 96 96 93 86 93 78 83 81 94 99 61 69 76 84 81 73 62 50 59
55 51 50 46 37 23 15 8 10 24 58 51 84 93 100 100 84 98 99 92 97 97 96 96 96 92 96 95 88 88 79 92 98 88 95 97 99 99 94 95 76 70 63 59 51
56 53 50 44 31 19 10 9 11 26 42 72 84 81 73 56 50 50 45 51 63 94 91 75 67 60 75 91 94 93 96 91 81 65 96 80 66 83 96 86 80 59 52 67 66
56 53 50 42 25 15 13 16 16 22 50 69 67 56 54 52 44 49 56 64 79 88 96 85 65 77 67 85 93 93 96 93 75 68 70 69 56 53 47 66 66 76 44 52 73
58 56 51 34 22 16 18 18 23 30 69 72 60 58 64 70 72 66 72 57 59 73 76 68 77 67 59 70 67 65 62 69 70 87 88 85 89 62 55 44 48 70 81 45 62
64 59 49 25 19 22 22 26 26 40 73 58 59 56 65 79 79 65 53 51 44 44 47 40 40 51 50 45 43 52 46 54 54 52 66 66 94 66 66 51 31 42 48 73 52
66 60 41 24 25 22 35 32 38 56 77 55 60 64 71 73 78 62 50 50 48 50 48 44 36 36 32 30 34 44 43 31 29 38 86 50 69 62 45 40 38 29 32 62 71
65 61 34 25 27 24 45 42 50 58 53 70 54 62 77 74 69 64 66 61 58 56 53 45 35 37 41 40 44 57 45 85 80 96 94 62 63 54 17 13 18 22 28 29 56
65 54 40 30 35 34 48 47 60 67 65 64 68 62 67 69 58 55 55 53 52 55 54 54 40 43 57 45 42 42 56 62 92 94 86 35 61 56 35 38 41 31 21 24 25
68 58 45 43 42 51 50 61 62 73 75 71 72 69 61 65 68 64 59 56 56 55 59 58 62 54 55 41 41 58 64 68 79 77 87 65 45 32 21 22 37 43 42 35 27
72 60 43 47 41 57 55 62 67 74 79 78 78 68 73 75 81 78 67 57 51 51 61 68 69 57 48 50 48 40 58 75 95 100 96 69 65 50 35 28 37 35 50 49 43
72 55 47 37 41 63 69 65 58 68 75 83 90 85 77 88 93 96 85 67 59 58 63 68 73 64 62 54 55 68 75 73 80 84 92 91 55 79 85 85 80 77 67 54 38
79 44 46 30 62 69 83 73 75 73 80 85 88 89 85 90 93 96 89 80 70 65 75 82 73 67 60 55 62 88 52 69 82 86 89 91 71 58 75 88 90 75 75 88 92
76 50 42 34 63 79 90 86 94 87 87 95 97 89 93 89 98 83 84 75 77 75 75 71 81 77 54 48 74 77 66 67 87 95 93 93 74 63 90 87 91 70 76 67 70
74 42 39 38 59 83 92 96 87 83 95 98 98 92 95 90 91 88 86 82 76 92 88 91 92 85 81 63 81 82 68 72 82 98 83 82 68 49 94 80 71 70 63 57 55
64 45 24 26 33 44 100 96 92 89 94 96 92 78 96 96 91 90 81 87 96 97 97 99 97 97 89 87 87 76 69 70 71 63 98 54 82 81 99 96 93 75 84 87 71
74 30 24 10 20 66 98 68 66 94 97 100 98 89 98 95 87 96 96 97 86 84 97 96 95 95 90 77 80 83 73 70 70 69 68 96 92 94 93 90 89 81 72 79 96
66 22 13 21 23 77 48 50 75 92 91 90 98 98 94 76 97 92 96 100 99 93 97 96 97 97 86 85 85 66 62 58 95 96 95 87 96 87 86 86 86 91 81 86 99
Wind_Speed
32 33 35 37 38 39 40 41 45 47 45 43 44 46 38 36 27 31 30 33 23 23 26 23 28 26 32 39 44 46 49 52 54 49 48 20 37 35 33 33 30 26 18 23 26
34 37 38 39 40 42 43 44 45 46 44 43 44 45 53 39 39 38 32 10 24 26 26 28 26 25 34 38 46 53 52 59 55 53 55 38 39 27 38 36 34 27 20 20 26
35 36 38 40 43 43 44 46 47 47 43 37 39 41 49 39 47 26 24 36 36 33 25 24 24 27 31 37 43 52 67 58 56 52 46 34 44 38 43 41 37 29 23 24 24
39 40 40 43 44 44 45 48 48 45 43 36 34 37 45 39 34 36 42 42 35 32 31 32 32 28 30 33 38 47 55 59 47 41 39 30 34 45 45 46 40 35 29 25 28
40 41 42 43 44 46 47 47 46 44 42 39 29 36 37 47 46 35 35 39 40 39 43 38 34 33 33 35 32 43 50 47 49 45 46 40 47 46 47 45 41 38 34 26 26
42 44 43 45 46 47 47 46 45 43 41 38 33 34 41 48 38 34 40 43 46 50 46 43 38 31 34 34 30 32 33 48 48 45 40 40 50 38 53 41 43 41 37 31 25
44 44 44 46 47 45 45 45 45 44 40 35 32 34 41 41 35 42 37 50 46 39 36 34 29 27 29 30 34 34 38 37 44 48 51 47 45 53 49 47 41 42 39 34 27
46 45 46 46 46 43 44 45 46 43 41 38 33 27 35 36 31 34 32 29 31 24 27 28 20 26 31 33 32 21 20 33 41 37 44 40 51 51 42 40 43 43 39 37 29
49 47 45 45 44 45 45 46 46 44 38 35 27 25 30 20 19 30 32 34 31 27 26 14 16 25 28 31 30 28 27 31 27 17 22 38 54 50 48 32 37 41 45 40 34
49 48 46 43 42 45 45 44 44 43 37 30 16 17 20 28 29 37 37 25 28 29 24 20 16 17 19 20 21 14 21 31 31 23 26 23 47 42 40 24 27 38 37 41 40
49 48 46 44 42 43 44 42 41 35 29 25 24 21 26 26 31 30 30 32 26 23 19 10 11 17 19 20 18 23 31 33 27 25 29 29 28 20 31 25 40 41 37 39 43
49 47 45 44 42 40 36 36 36 32 30 23 21 15 15 18 19 15 13 13 9 15 13 18 24 15 25 24 21 21 27 28 24 16 19 31 42 34 30 28 38 42 44 38 33
50 47 45 44 41 35 33 29 27 25 20 12 10 12 14 17 13 8 9 8 7 6 6 10 7 15 6 20 18 22 24 23 25 20 22 21 41 35 37 31 31 40 45 43 37
50 47 45 43 38 30 24 23 21 18 6 5 11 10 16 16 7 10 4 5 7 8 10 6 5 4 8 9 10 15 9 10 9 10 6 11 7 26 23 21 25 35 29 42 40
49 46 45 43 35 27 24 20 17 12 4 8 12 16 17 17 17 5 5 10 12 12 14 10 14 14 17 14 12 15 15 14 14 16 16 23 10 20 13 21 33 32 37 35 44
50 48 44 36 30 26 21 17 14 3 2 10 13 20 18 16 13 9 9 13 17 18 17 19 14 15 11 11 9 13 14 16 18 14 7 29 17 10 24 29 31 31 31 38 38
49 47 40 35 27 23 17 17 4 2 10 5 16 18 18 16 17 13 14 16 14 11 9 15 18 14 6 4 8 3 12 4 5 1 5 7 10 29 30 32 33 31 25 31 38
50 44 36 31 29 18 14 13 2 2 8 13 16 17 13 12 12 11 11 15 13 16 19 7 4 7 3 7 8 11 3 2 3 2 4 21 9 10 13 12 15 23 28 29 29
52 45 37 26 27 18 14 4 3 6 8 13 15 9 8 8 12 15 14 14 11 11 6 4 4 11 6 7 8 2 5 6 6 15 6 9 25 36 35 31 23 28 31 26 21
54 49 35 28 26 16 14 6 7 9 12 12 10 7 12 19 14 10 9 9 11 14 12 8 11 10 9 7 5 12 8 3 2 3 5 8 15 21 24 19 22 28 11 15 26
53 50 38 32 24 16 14 7 9 9 12 11 15 15 18 19 18 17 12 12 14 18 15 13 11 11 16 6 12 1 2 6 5 6 4 5 4 5 11 11 13 14 17 20 18
52 46 42 29 23 15 14 12 11 19 20 18 19 16 15 17 18 14 17 17 14 14 14 13 10 18 21 6 2 2 10 8 1 6 14 9 12 22 13 25 19 22 13 14 16
50 45 33 30 18 18 14 16 21 22 20 18 18 20 17 20 11 12 13 15 16 19 9 7 6 7 7 2 2 5 16 16 15 17 20 8 11 22 35 27 19 24 21 19 18
47 35 35 27 15 14 22 20 17 24 22 23 22 23 22 21 21 16 18 11 11 14 13 17 16 16 11 14 18 24 26 23 22 16 20 26 37 37 31 25 24 18 19 24 20
46 36 33 32 31 25 18 24 29 27 22 25 25 23 25 24 24 25 22 21 21 17 16 16 18 19 22 23 22 26 29 25 26 29 20 36 33 36 31 29 29 24 21 19 23
40 36 31 31 29 22 23 27 26 17 27 27 27 23 23 28 30 27 22 18 17 17 29 25 26 20 26 25 14 21 27 32 27 26 25 20 19 14 25 26 27 28 25 22 24
38 32 29 32 28 23 25 19 21 26 21 21 23 25 27 28 27 22 22 25 23 13 17 21 20 13 11 9 16 20 3 9 11 6 7 12 18 23 27 32 24 21 23 24 23
Wind_Direction
334 332 331 333 328 325 323 321 321 323 322 323 321 321 317 311 320 309 308 303 294 279 279 280 278 265 249 241 233 227 230 240 239 240 240 248 251 243 240 246 233 235 255 235 242
333 332 330 328 324 323 325 325 323 322 320 318 318 316 314 318 315 308 309 256 315 302 284 276 274 267 248 241 231 225 231 238 244 249 248 254 248 246 240 241 227 231 254 225 237
331 330 328 326 325 322 323 323 322 321 317 310 309 307 307 312 309 327 324 296 300 301 283 285 278 264 258 250 237 234 236 248 243 244 248 251 247 243 243 237 232 230 248 236 226
329 329 327 325 323 322 323 323 320 317 315 305 302 299 295 294 298 321 306 300 302 295 289 288 279 271 268 261 256 243 243 244 243 245 239 245 250 245 242 242 236 231 243 241 236
331 330 326 326 324 323 323 321 318 316 313 306 286 286 281 285 294 297 289 298 297 294 295 286 275 274 268 269 262 246 250 244 245 248 243 248 250 253 249 244 239 231 233 241 237
333 330 327 325 324 325 322 320 316 314 310 308 293 287 277 279 299 302 294 296 296 292 287 282 276 265 265 268 257 257 256 251 246 245 243 250 247 247 245 246 239 235 227 236 239
333 332 328 325 326 325 320 317 315 314 312 312 303 291 271 285 299 287 290 294 290 284 273 275 280 269 263 261 254 258 252 243 248 251 249 249 254 243 247 247 243 235 230 233 234
336 330 328 329 327 323 319 316 314 315 314 316 311 293 278 300 297 290 290 289 283 274 278 275 257 251 247 255 252 257 255 258 257 253 253 243 252 247 255 251 244 239 232 228 231
333 331 330 329 327 321 320 319 315 314 313 313 310 318 312 304 283 297 294 293 267 283 277 267 241 239 253 253 262 265 265 257 270 271 266 240 251 250 252 250 250 240 237 233 225
332 331 330 329 327 322 321 317 316 315 316 327 330 305 289 298 305 300 299 284 294 294 274 266 234 245 256 241 242 257 262 266 264 270 274 246 250 256 253 252 254 249 246 241 229
335 332 331 330 329 325 321 319 319 319 318 322 316 309 302 297 301 300 290 288 291 279 288 255 267 266 272 265 268 263 260 268 267 268 273 278 281 269 244 240 241 243 246 242 235
336 333 332 330 332 326 321 317 315 311 315 319 319 332 318 322 324 320 316 318 299 284 300 302 286 311 271 259 269 264 269 279 291 289 302 290 276 263 259 244 237 243 236 233 240
336 335 333 333 334 331 323 320 316 314 314 333 3 358 351 340 336 346 337 352 4 0 336 299 309 320 312 242 262 266 276 291 295 311 293 302 283 283 267 263 255 237 236 230 226
337 336 337 337 335 338 331 324 317 322 323 2 2 352 343 338 318 338 343 358 347 332 327 310 334 349 341 265 265 275 286 281 297 314 292 303 294 290 279 264 255 242 237 231 224
339 341 341 342 342 339 337 330 328 335 7 352 350 338 325 326 309 312 330 320 315 309 291 285 284 280 281 292 287 272 278 277 280 291 295 282 264 281 306 276 252 245 240 236 231
342 343 341 344 344 340 332 332 341 351 291 325 329 332 317 326 310 282 287 290 305 298 289 291 292 281 284 286 275 280 280 286 279 269 250 269 253 280 275 277 279 257 246 236 231
342 342 341 342 345 344 327 335 333 58 329 317 326 326 316 319 312 300 291 287 294 304 303 297 293 274 254 337 308 217 330 347 10 166 231 359 308 258 279 278 279 280 269 245 239
342 342 342 338 348 353 337 342 311 258 310 315 318 323 320 323 308 314 307 301 289 268 282 294 337 189 183 359 338 312 344 163 242 242 261 285 265 266 289 272 269 267 256 253 242
339 341 341 341 346 351 336 314 266 292 305 318 323 322 339 320 307 306 300 290 271 252 239 287 264 212 274 336 315 346 290 274 258 267 274 244 262 282 282 272 288 293 278 260 250
337 338 343 336 339 343 340 304 274 300 302 304 306 306 316 309 302 298 292 278 271 257 254 275 286 251 246 325 260 306 295 255 200 324 294 270 262 260 295 296 285 288 291 261 257
336 333 337 330 336 332 335 295 288 316 320 298 291 290 306 302 283 281 262 274 269 264 271 271 271 255 296 220 298 87 80 17 323 263 285 315 299 30 54 357 325 305 280 270 266
334 329 329 329 325 320 321 293 309 302 305 307 294 286 294 293 285 276 262 265 272 269 272 274 283 286 299 301 235 123 8 347 37 316 298 262 262 260 325 337 321 319 305 260 245
331 329 330 330 310 312 314 275 302 305 295 295 295 296 295 289 270 271 278 284 252 259 264 262 241 304 304 328 140 308 305 305 299 293 259 257 274 291 318 310 300 303 295 288 256
329 321 323 321 319 305 312 283 299 311 295 305 295 290 292 283 271 263 273 280 251 258 246 248 251 250 245 279 296 293 295 292 285 270 274 271 290 316 312 305 303 288 276 279 267
326 318 316 302 305 306 295 285 297 307 300 300 293 297 294 280 283 268 276 276 257 220 230 245 261 274 280 288 290 292 293 292 276 271 253 286 296 319 302 306 311 305 297 289 263
320 313 307 301 301 302 284 286 299 292 299 293 291 305 288 278 277 285 281 276 270 254 241 245 270 272 285 300 290 285 291 292 284 274 267 275 299 313 319 318 305 297 297 288 281
318 308 301 301 300 294 300 306 292 295 293 290 295 292 285 291 289 288 273 268 266 247 242 244 249 260 281 280 305 296 172 341 285 227 323 318 329 341 346 347 323 304 297 292 295